• In Uzbekistan
  • List of Countries
  • For 7 days
  • Water Temperature
  • Weather Map
  • Weather Widgets
  • user-avatar
    Login

    Hourly Weather Dominikowice

    Today, 14 December, Saturday

    Time Temperature Precipitation Wind Pressure Humidity
    00:00 -1°C° 0 mm 6 mps 732 mmHg 82%
    01:00 -1°C° 0 mm 6 mps 732 mmHg 83%
    02:00 -1°C° 0 mm 6 mps 732 mmHg 82%
    03:00 -1°C° 0 mm 6 mps 732 mmHg 81%
    04:00 -1°C° 0 mm 6 mps 733 mmHg 81%
    05:00 -1°C° 0 mm 6 mps 733 mmHg 81%
    06:00 -1°C° 0 mm 6 mps 733 mmHg 82%
    07:00 -1°C° 0 mm 6 mps 733 mmHg 82%
    08:00 +1°C° 0 mm 6 mps 733 mmHg 81%
    09:00 +1°C° 0 mm 6 mps 734 mmHg 80%
    10:00 +2°C° 0 mm 6 mps 734 mmHg 79%
    11:00 +2°C° 0 mm 6 mps 734 mmHg 76%
    12:00 +3°C° 0 mm 6 mps 734 mmHg 73%
    13:00 +4°C° 0 mm 6 mps 734 mmHg 70%
    14:00 +3°C° 0.1 mm 7 mps 734 mmHg 74%
    15:00 +3°C° 0.1 mm 7 mps 734 mmHg 78%
    16:00 +1°C° 0.1 mm 8 mps 734 mmHg 82%
    17:00 +1°C° 0.3 mm 9 mps 734 mmHg 82%
    18:00 +2°C° 0.3 mm 9 mps 735 mmHg 81%
    19:00 +2°C° 0.3 mm 10 mps 735 mmHg 81%
    20:00 +2°C° 0 mm 9 mps 737 mmHg 81%
    21:00 +2°C° 0 mm 9 mps 738 mmHg 81%
    22:00 +1°C° 0 mm 8 mps 739 mmHg 80%
    23:00 +2°C° 0 mm 7 mps 740 mmHg 78%

    Tomorrow, 15 December, Sunday

    Time Temperature Precipitation Wind Pressure Humidity
    00:00 +2°C° 0 mm 7 mps 740 mmHg 77%
    01:00 +1°C° 0 mm 6 mps 741 mmHg 75%
    02:00 +1°C° 0 mm 6 mps 741 mmHg 79%
    03:00 +1°C° 0 mm 6 mps 742 mmHg 84%
    04:00 +1°C° 0 mm 6 mps 742 mmHg 89%
    05:00 +1°C° 0 mm 5 mps 742 mmHg 88%
    06:00 +1°C° 0 mm 5 mps 743 mmHg 88%
    07:00 +2°C° 0 mm 5 mps 743 mmHg 87%
    08:00 +2°C° 0 mm 6 mps 743 mmHg 84%
    09:00 +2°C° 0 mm 6 mps 743 mmHg 81%
    10:00 +3°C° 0 mm 7 mps 743 mmHg 77%
    11:00 +4°C° 0.4 mm 7 mps 742 mmHg 79%
    12:00 +4°C° 0.4 mm 8 mps 742 mmHg 82%
    13:00 +5°C° 0.4 mm 8 mps 741 mmHg 84%
    14:00 +6°C° 0.1 mm 8 mps 742 mmHg 82%
    15:00 +6°C° 0.1 mm 8 mps 742 mmHg 80%
    16:00 +7°C° 0.1 mm 8 mps 743 mmHg 78%
    17:00 +8°C° 0.5 mm 7 mps 744 mmHg 76%
    18:00 +7°C° 0.5 mm 6 mps 745 mmHg 74%
    19:00 +7°C° 0.5 mm 5 mps 746 mmHg 71%
    20:00 +6°C° 0 mm 5 mps 747 mmHg 74%
    21:00 +5°C° 0 mm 4 mps 747 mmHg 76%
    22:00 +4°C° 0 mm 3 mps 748 mmHg 78%
    23:00 +4°C° 0 mm 3 mps 748 mmHg 81%

    Day after tomorrow, 16 December, Monday

    Time Temperature Precipitation Wind Pressure Humidity
    00:00 +4°C° 0 mm 3 mps 749 mmHg 83%
    01:00 +4°C° 0 mm 3 mps 749 mmHg 85%
    02:00 +3°C° 0 mm 3 mps 749 mmHg 87%
    03:00 +3°C° 0 mm 3 mps 749 mmHg 88%
    04:00 +3°C° 0 mm 3 mps 749 mmHg 90%
    05:00 +3°C° 0 mm 3 mps 749 mmHg 89%
    06:00 +4°C° 0 mm 3 mps 749 mmHg 89%
    07:00 +4°C° 0 mm 3 mps 749 mmHg 89%
    08:00 +4°C° 0 mm 3 mps 750 mmHg 86%
    09:00 +4°C° 0 mm 3 mps 750 mmHg 84%
    10:00 +5°C° 0 mm 4 mps 750 mmHg 81%
    11:00 +5°C° 0 mm 4 mps 750 mmHg 78%
    12:00 +7°C° 0 mm 3 mps 750 mmHg 75%
    13:00 +8°C° 0 mm 3 mps 749 mmHg 72%
    14:00 +7°C° 0 mm 3 mps 749 mmHg 75%
    15:00 +7°C° 0 mm 3 mps 749 mmHg 77%
    16:00 +7°C° 0 mm 3 mps 749 mmHg 80%
    17:00 +6°C° 0 mm 4 mps 749 mmHg 81%
    18:00 +6°C° 0 mm 4 mps 749 mmHg 82%
    19:00 +6°C° 0 mm 5 mps 749 mmHg 83%
    20:00 +5°C° 0 mm 5 mps 749 mmHg 83%
    21:00 +5°C° 0 mm 4 mps 749 mmHg 83%
    22:00 +5°C° 0 mm 4 mps 748 mmHg 83%
    23:00 +5°C° 0 mm 4 mps 748 mmHg 83%

    17 December, Tuesday

    Time Temperature Precipitation Wind Pressure Humidity
    00:00 +5°C° 0 mm 4 mps 748 mmHg 83%
    01:00 +5°C° 0 mm 4 mps 748 mmHg 83%
    02:00 +5°C° 0 mm 4 mps 748 mmHg 84%
    03:00 +5°C° 0 mm 4 mps 747 mmHg 85%
    04:00 +5°C° 0 mm 4 mps 747 mmHg 85%
    05:00 +5°C° 0 mm 4 mps 747 mmHg 86%
    06:00 +5°C° 0 mm 4 mps 747 mmHg 87%
    07:00 +5°C° 0 mm 4 mps 747 mmHg 87%
    08:00 +5°C° 0 mm 4 mps 747 mmHg 86%
    09:00 +6°C° 0 mm 4 mps 747 mmHg 85%
    10:00 +6°C° 0 mm 5 mps 747 mmHg 83%
    11:00 +7°C° 0 mm 4 mps 747 mmHg 82%
    12:00 +7°C° 0 mm 4 mps 747 mmHg 80%
    13:00 +8°C° 0 mm 4 mps 747 mmHg 78%
    14:00 +7°C° 0 mm 4 mps 747 mmHg 81%
    15:00 +8°C° 0 mm 3 mps 747 mmHg 84%
    16:00 +7°C° 0 mm 3 mps 747 mmHg 87%
    17:00 +7°C° 0 mm 3 mps 747 mmHg 88%
    18:00 +7°C° 0 mm 3 mps 747 mmHg 89%
    19:00 +5°C° 0 mm 3 mps 747 mmHg 90%
    20:00 +6°C° 0 mm 2 mps 747 mmHg 91%
    21:00 +6°C° 0 mm 2 mps 747 mmHg 91%
    22:00 +5°C° 0 mm 2 mps 748 mmHg 91%
    23:00 +5°C° 0 mm 2 mps 748 mmHg 91%

    18 December, Wednesday

    Time Temperature Precipitation Wind Pressure Humidity
    00:00 +5°C° 0 mm 2 mps 748 mmHg 91%
    01:00 +5°C° 0 mm 2 mps 748 mmHg 91%
    02:00 +5°C° 0 mm 2 mps 748 mmHg 90%
    03:00 +5°C° 0 mm 2 mps 748 mmHg 90%
    04:00 +5°C° 0 mm 2 mps 748 mmHg 90%
    05:00 +5°C° 0 mm 2 mps 748 mmHg 90%
    06:00 +6°C° 0 mm 1 mps 748 mmHg 90%
    07:00 +6°C° 0 mm 1 mps 748 mmHg 89%
    08:00 +6°C° 0 mm 1 mps 748 mmHg 89%
    09:00 +7°C° 0 mm 1 mps 748 mmHg 89%
    10:00 +6°C° 0 mm 2 mps 749 mmHg 89%
    11:00 +7°C° 0 mm 2 mps 749 mmHg 86%
    12:00 +8°C° 0 mm 2 mps 748 mmHg 83%
    13:00 +9°C° 0 mm 3 mps 748 mmHg 80%
    14:00 +8°C° 0 mm 3 mps 748 mmHg 83%
    15:00 +7°C° 0 mm 3 mps 749 mmHg 85%
    16:00 +5°C° 0 mm 3 mps 749 mmHg 88%
    17:00 +5°C° 0 mm 3 mps 749 mmHg 88%
    18:00 +5°C° 0 mm 3 mps 749 mmHg 88%
    19:00 +4°C° 0 mm 3 mps 750 mmHg 89%
    20:00 +4°C° 0 mm 3 mps 750 mmHg 90%
    21:00 +5°C° 0 mm 2 mps 750 mmHg 91%
    22:00 +4°C° 0 mm 2 mps 750 mmHg 93%
    23:00 +5°C° 0 mm 1 mps 750 mmHg 93%

    19 December, Thursday

    Time Temperature Precipitation Wind Pressure Humidity
    00:00 +5°C° 0 mm 1 mps 750 mmHg 94%
    01:00 +5°C° 0 mm 1 mps 750 mmHg 94%
    02:00 +5°C° 0 mm 1 mps 750 mmHg 94%
    03:00 +5°C° 0 mm 1 mps 750 mmHg 95%
    04:00 +4°C° 0 mm 1 mps 750 mmHg 95%
    05:00 +3°C° 0 mm 2 mps 750 mmHg 95%
    06:00 +3°C° 0 mm 2 mps 750 mmHg 96%
    07:00 +3°C° 0 mm 2 mps 750 mmHg 96%
    08:00 +4°C° 0 mm 2 mps 750 mmHg 95%
    09:00 +3°C° 0 mm 3 mps 750 mmHg 94%
    10:00 +3°C° 0 mm 3 mps 750 mmHg 94%
    11:00 +3°C° 0 mm 4 mps 749 mmHg 92%
    12:00 +4°C° 0 mm 4 mps 749 mmHg 91%
    13:00 +4°C° 0 mm 4 mps 749 mmHg 89%
    14:00 +4°C° 0 mm 4 mps 748 mmHg 90%
    15:00 +3°C° 0 mm 5 mps 748 mmHg 90%
    16:00 +3°C° 0 mm 5 mps 748 mmHg 90%
    17:00 +3°C° 0 mm 5 mps 748 mmHg 90%
    18:00 +3°C° 0 mm 5 mps 748 mmHg 90%
    19:00 +3°C° 0 mm 5 mps 747 mmHg 90%
    20:00 +3°C° 0.2 mm 5 mps 747 mmHg 91%
    21:00 +3°C° 0.2 mm 5 mps 747 mmHg 91%
    22:00 +3°C° 0.2 mm 5 mps 747 mmHg 91%
    23:00 +3°C° 0.9 mm 5 mps 746 mmHg 92%
    Show more